Wind_Speed
31 27 30 29 29 24 21 17 16 15 11 15 18 17 12 11 13 12 10 9 4 8 10 11 10 11 13 13 14 14 13 13 15 15 16 16 14 11 8 8 3 7 6
33 30 31 29 31 28 24 17 11 12 11 13 22 18 13 12 13 10 11 9 8 5 9 8 11 12 11 9 10 11 11 11 12 12 13 13 12 9 8 7 6 7 6
36 33 32 29 30 28 25 18 12 10 8 8 13 14 13 12 12 10 10 7 7 7 7 7 7 8 8 8 8 8 8 9 9 9 10 11 11 10 9 9 9 9 7
39 35 33 30 28 27 25 20 15 11 12 12 11 12 13 14 13 11 9 9 9 9 5 6 9 8 8 8 7 9 11 10 9 10 10 10 9 8 9 9 8 8 8
38 35 33 31 27 25 24 22 19 15 14 14 14 15 16 16 14 13 11 10 9 7 5 8 10 9 10 10 10 10 8 7 8 8 9 9 8 8 9 10 11 12 12
36 32 31 30 27 24 23 22 22 21 18 18 16 16 17 16 14 11 11 11 9 7 5 7 6 4 4 6 6 6 8 9 8 8 8 7 8 8 8 10 11 12 11
35 32 29 28 27 25 23 22 21 23 20 19 17 14 15 15 13 13 12 10 10 8 6 6 4 3 5 5 6 6 9 9 9 9 8 6 5 3 4 7 8 9 11
36 33 31 30 28 26 26 25 23 22 22 20 18 17 16 15 14 15 14 14 12 10 8 6 5 6 7 7 8 11 13 13 10 9 9 8 8 8 8 9 9 11 12
37 34 34 33 30 29 27 26 26 24 23 22 21 19 17 17 17 19 17 17 15 12 11 9 7 9 10 11 14 13 12 12 11 11 11 11 10 10 10 11 10 12 12
40 35 32 34 33 33 29 27 26 24 24 22 21 20 18 16 18 19 18 18 18 15 13 11 11 13 14 14 15 10 8 8 11 10 9 9 11 12 9 8 9 6 8
39 39 36 35 33 32 30 28 26 25 25 26 25 23 22 19 18 21 19 19 19 17 15 14 13 16 16 16 12 9 7 6 8 11 13 13 11 8 8 9 10 11 12
47 46 41 38 38 37 34 31 28 28 28 28 28 27 25 22 21 21 20 21 21 18 16 15 15 16 17 15 11 8 7 5 6 7 8 9 10 12 14 13 13 14 16
45 45 44 42 40 38 36 35 34 32 32 32 31 30 29 26 24 24 23 23 22 19 17 16 17 17 15 12 10 7 6 5 8 9 9 10 10 11 11 10 9 9 12
43 43 43 44 42 41 39 37 37 38 37 36 33 32 31 29 29 28 27 25 24 21 20 19 17 16 15 12 9 6 5 6 6 7 7 7 6 5 6 6 5 5 7
40 39 39 40 41 41 40 40 39 39 39 38 36 33 35 32 32 30 28 27 25 22 21 19 18 17 15 11 8 7 7 6 6 7 7 7 6 6 5 5 4 3 4
33 31 33 34 35 37 39 39 37 37 37 37 36 33 32 32 26 27 28 26 24 24 24 21 18 18 17 13 10 10 10 9 8 8 8 6 5 5 5 4 3 4 4
25 25 25 26 29 32 33 34 34 35 35 36 34 32 29 26 26 25 26 28 28 26 27 24 20 19 18 17 14 11 10 11 10 9 8 6 6 5 4 5 5 6 4
18 17 18 19 21 23 25 27 28 30 31 29 30 30 24 22 21 20 24 29 32 33 30 29 24 19 19 19 16 14 13 13 12 10 9 8 7 6 7 8 7 6 5
18 17 16 16 15 13 16 20 25 27 29 30 30 30 31 35 35 35 37 40 37 36 33 30 26 21 20 20 17 16 15 14 13 11 9 9 9 9 9 9 8 7 6
17 15 13 12 10 9 11 15 17 22 28 32 35 38 39 41 43 43 40 47 41 38 35 31 28 22 20 20 19 16 15 15 14 11 9 11 11 10 11 10 10 9 8
13 13 13 14 16 14 15 19 21 24 25 29 31 38 46 50 51 53 49 51 44 41 38 34 30 24 21 20 19 16 15 14 13 13 11 11 11 11 11 12 12 11 10
11 11 13 15 16 18 20 21 24 26 28 30 34 39 38 43 55 60 60 50 44 42 36 32 29 25 22 20 18 16 16 15 13 13 13 12 12 13 13 13 13 12 11
10 11 13 15 15 16 18 19 20 21 21 21 23 33 39 43 38 48 55 47 43 40 30 28 28 25 23 20 19 17 16 14 12 13 13 12 13 14 15 14 14 12 10
10 11 12 15 18 18 20 20 20 17 17 19 20 17 14 23 29 25 38 43 32 27 30 31 30 25 24 23 19 18 16 16 15 13 13 14 14 14 15 14 13 11 10
12 12 13 14 16 19 21 22 21 20 21 23 18 18 14 6 7 14 18 22 22 24 28 31 29 26 24 23 20 19 17 17 16 14 15 15 14 14 15 14 13 11 9
16 16 17 19 19 18 20 24 23 22 24 27 27 22 17 11 15 18 20 23 23 26 29 31 27 26 24 22 21 20 19 19 17 15 15 16 15 14 15 15 13 10 8
Wind_Direction
216 216 218 223 225 232 238 242 250 254 245 246 231 225 215 218 218 211 215 217 232 243 241 249 267 271 271 271 273 279 279 280 283 286 292 296 300 307 315 323 290 322 311
218 218 218 221 224 231 235 241 240 251 268 247 215 212 211 211 221 219 231 230 240 250 260 267 268 277 278 279 273 275 282 291 294 297 294 291 294 272 283 307 317 314 323
219 219 221 221 224 229 231 231 230 233 227 154 166 196 206 220 230 233 238 229 242 255 254 270 277 283 287 280 271 276 290 299 297 304 306 297 286 279 277 290 298 299 291
220 220 223 223 226 229 229 225 216 225 217 212 213 214 220 228 228 228 232 237 246 257 254 284 293 291 286 285 285 289 295 289 287 297 300 304 302 282 275 278 293 304 301
219 219 221 224 228 225 224 221 212 212 206 209 214 218 220 220 222 226 227 235 252 236 271 301 298 294 288 279 281 290 290 281 285 292 297 295 291 268 269 286 294 299 303
215 217 218 219 223 218 215 214 210 209 215 220 216 217 222 226 227 231 237 247 234 237 288 314 315 312 321 311 294 291 283 287 287 288 287 291 282 272 277 286 296 306 312
211 213 213 213 212 210 205 203 204 205 211 222 225 232 233 235 236 239 235 241 227 253 278 320 333 339 345 337 317 310 298 290 284 279 271 275 282 286 293 301 304 313 317
209 210 208 208 206 208 205 204 206 206 212 221 229 236 242 243 234 236 234 235 231 248 267 302 306 302 310 309 304 297 288 275 268 265 258 257 264 277 284 292 299 305 315
207 209 205 204 206 205 208 208 210 214 218 220 228 239 245 250 238 229 233 228 231 245 262 277 299 301 296 302 307 301 280 268 261 256 253 262 270 278 288 286 292 299 314
208 208 204 206 208 206 205 210 214 217 224 229 232 236 243 243 246 237 231 234 234 246 265 281 301 305 300 302 305 294 279 266 254 244 243 263 276 288 288 278 285 286 311
214 210 207 204 203 204 208 213 219 223 227 231 233 235 238 235 239 239 234 235 241 250 267 280 295 301 300 306 305 304 299 277 247 242 243 252 262 258 282 284 288 296 303
216 214 212 213 217 222 223 225 227 228 230 231 231 233 234 232 231 229 232 235 239 248 266 274 285 295 300 302 305 318 311 300 263 244 239 243 246 250 258 269 280 287 290
220 221 219 219 221 226 229 231 231 232 232 232 233 234 233 234 230 228 230 232 238 245 254 265 274 289 297 301 306 310 307 279 257 255 260 261 264 265 262 269 273 277 279
223 224 224 225 226 230 232 235 237 236 233 234 234 234 232 235 231 228 228 231 233 237 243 254 268 285 288 286 285 283 270 256 258 265 263 267 263 271 274 267 257 253 264
224 225 227 228 229 232 235 238 239 242 241 239 242 238 231 224 231 232 230 232 237 242 245 249 264 275 275 275 269 276 286 278 263 260 261 256 247 250 258 267 276 269 257
226 226 227 229 232 234 238 242 245 245 243 241 248 251 244 244 235 236 233 232 235 240 243 248 259 271 275 273 270 278 293 290 269 258 255 253 252 255 269 282 301 313 322
222 221 223 227 231 237 244 246 244 242 243 242 244 249 241 246 242 235 238 233 232 233 243 248 254 270 272 266 259 264 274 272 265 254 251 251 258 273 277 287 297 309 318
203 214 224 233 240 245 250 252 248 245 241 238 238 238 240 232 232 241 246 236 229 232 236 242 249 259 259 258 259 267 265 261 256 254 256 255 268 278 284 288 292 300 308
199 210 215 223 229 239 249 251 249 248 243 242 241 229 217 223 221 222 225 236 238 237 235 237 246 252 255 253 252 257 261 256 247 252 251 259 269 283 281 277 278 285 284
198 205 209 213 215 227 243 254 256 254 248 243 241 240 240 228 225 228 233 239 234 236 237 236 245 250 250 246 248 251 251 245 248 249 253 265 269 275 274 272 270 274 278
204 210 215 217 226 238 244 250 254 256 257 257 258 254 251 240 242 235 237 234 237 237 232 232 242 247 245 242 246 245 247 248 251 250 258 257 262 271 271 267 268 271 275
226 232 235 236 240 246 251 252 252 257 261 262 266 270 266 253 247 237 235 235 238 237 234 232 241 246 243 241 244 244 249 250 243 250 251 248 262 268 265 264 263 265 272
248 253 249 244 252 267 262 261 263 261 263 266 276 288 275 262 255 250 227 232 232 234 227 235 238 236 234 238 242 245 248 241 245 244 247 252 260 265 264 262 260 262 266
261 263 272 268 263 273 269 269 270 265 255 263 288 316 328 265 251 240 238 222 218 223 237 236 236 238 234 237 238 247 243 234 243 248 253 256 261 266 265 261 256 259 269
271 274 280 285 281 277 271 271 271 265 257 263 277 294 334 48 232 226 214 195 212 231 236 236 235 235 232 238 245 247 244 242 243 246 249 254 258 260 259 254 254 262 268
274 280 280 276 278 282 274 269 271 265 263 262 262 260 268 270 218 204 202 214 209 213 228 237 236 232 233 236 241 245 244 240 242 249 250 255 256 255 250 246 247 250 256
Height
1523 1527 1530 1533 1537 1540 1543 1545 1547 1549 1550 1550 1552 1554 1556 1558 1560 1561 1562 1564 1565 1565 1567 1567 1566 1566 1566 1565 1565 1565 1564 1564 1562 1561 1560 1561 1561 1561 1560 1558 1557 1557 1555
1519 1523 1527 1531 1534 1537 1540 1543 1545 1546 1547 1545 1547 1552 1555 1558 1559 1560 1561 1563 1564 1565 1564 1564 1564 1563 1563 1562 1562 1562 1561 1560 1560 1558 1557 1557 1557 1557 1557 1557 1557 1556 1555
1514 1520 1523 1527 1531 1535 1538 1542 1544 1545 1547 1546 1548 1552 1554 1557 1558 1559 1561 1561 1562 1562 1562 1562 1562 1561 1561 1559 1559 1559 1558 1557 1555 1555 1555 1556 1556 1556 1556 1556 1555 1555 1555
1510 1516 1519 1524 1527 1531 1535 1539 1542 1544 1545 1547 1549 1551 1553 1555 1557 1558 1559 1559 1559 1560 1559 1560 1560 1559 1559 1558 1557 1556 1555 1555 1554 1553 1553 1553 1553 1553 1553 1553 1553 1552 1552
1505 1511 1515 1520 1525 1529 1533 1536 1540 1542 1544 1546 1548 1549 1551 1552 1554 1555 1556 1556 1557 1558 1558 1558 1557 1556 1556 1555 1555 1554 1553 1553 1552 1552 1552 1551 1551 1551 1551 1551 1551 1551 1550
1502 1507 1513 1518 1521 1526 1530 1534 1537 1540 1543 1544 1546 1548 1549 1550 1552 1554 1555 1555 1557 1558 1558 1558 1556 1555 1555 1554 1553 1552 1551 1551 1550 1549 1549 1549 1548 1548 1548 1548 1549 1549 1548
1499 1504 1509 1514 1517 1521 1526 1530 1533 1536 1539 1541 1544 1546 1547 1549 1551 1553 1552 1555 1557 1557 1558 1557 1555 1555 1554 1553 1551 1550 1549 1549 1548 1547 1547 1547 1546 1546 1547 1546 1546 1545 1544
1494 1500 1505 1510 1514 1518 1522 1525 1529 1532 1535 1538 1540 1543 1545 1547 1550 1551 1553 1555 1555 1556 1556 1555 1554 1553 1552 1551 1550 1548 1546 1545 1544 1544 1544 1544 1545 1544 1544 1543 1542 1540 1540
1489 1494 1500 1505 1509 1513 1517 1521 1525 1528 1531 1533 1537 1540 1542 1544 1547 1549 1550 1551 1552 1554 1554 1554 1552 1551 1551 1549 1547 1545 1543 1542 1541 1541 1542 1542 1542 1542 1541 1539 1539 1538 1537
1483 1489 1494 1499 1504 1508 1511 1516 1520 1523 1526 1530 1532 1536 1538 1541 1544 1545 1547 1548 1550 1551 1552 1552 1550 1550 1548 1546 1544 1542 1541 1539 1538 1537 1538 1538 1539 1539 1538 1539 1538 1536 1536
1477 1484 1490 1494 1498 1503 1507 1511 1515 1519 1522 1525 1529 1532 1534 1538 1539 1541 1544 1545 1547 1549 1549 1549 1548 1547 1545 1543 1541 1540 1538 1537 1537 1537 1536 1536 1536 1536 1537 1537 1537 1535 1534
1472 1478 1484 1489 1493 1498 1502 1506 1510 1514 1517 1520 1523 1527 1530 1533 1535 1537 1539 1541 1543 1545 1546 1546 1545 1544 1542 1540 1538 1537 1536 1535 1536 1536 1535 1534 1533 1534 1534 1534 1533 1532 1530
1467 1472 1478 1484 1488 1492 1495 1499 1503 1507 1510 1513 1517 1520 1524 1527 1530 1533 1534 1536 1539 1541 1543 1543 1542 1541 1539 1537 1535 1535 1533 1534 1535 1535 1534 1533 1532 1532 1532 1530 1528 1528 1526
1461 1467 1473 1478 1482 1486 1490 1493 1497 1499 1502 1505 1509 1513 1517 1522 1524 1527 1529 1531 1534 1535 1537 1538 1538 1537 1536 1535 1534 1533 1533 1533 1533 1533 1531 1530 1529 1529 1530 1529 1527 1526 1525
1456 1462 1467 1471 1475 1479 1483 1486 1489 1493 1497 1500 1502 1506 1508 1509 1515 1521 1524 1526 1529 1531 1533 1533 1534 1534 1533 1533 1533 1532 1532 1532 1532 1532 1531 1529 1528 1528 1527 1527 1526 1524 1523
1452 1457 1461 1465 1470 1473 1476 1480 1483 1487 1491 1496 1499 1503 1506 1511 1513 1516 1520 1521 1525 1527 1529 1529 1530 1530 1530 1530 1530 1531 1531 1531 1531 1530 1530 1530 1529 1529 1527 1528 1527 1525 1522
1447 1452 1457 1462 1465 1467 1471 1473 1476 1480 1483 1489 1493 1497 1501 1506 1511 1513 1516 1517 1518 1519 1523 1525 1525 1525 1526 1526 1527 1527 1527 1528 1529 1529 1529 1529 1529 1528 1527 1526 1526 1525 1521
1445 1450 1455 1459 1461 1464 1466 1469 1472 1475 1479 1483 1486 1489 1494 1499 1503 1509 1512 1516 1511 1510 1513 1519 1520 1519 1521 1522 1523 1524 1524 1524 1525 1526 1527 1528 1527 1526 1526 1525 1524 1524 1522
1443 1448 1451 1454 1457 1460 1463 1465 1468 1471 1474 1477 1480 1482 1482 1483 1488 1493 1494 1500 1503 1504 1507 1512 1515 1514 1515 1517 1518 1518 1519 1521 1521 1522 1523 1525 1525 1526 1525 1524 1522 1521 1520
1441 1444 1447 1450 1453 1456 1459 1462 1464 1467 1469 1472 1474 1476 1477 1479 1478 1482 1483 1486 1489 1493 1500 1506 1509 1509 1510 1513 1515 1515 1515 1515 1517 1518 1519 1521 1521 1521 1521 1521 1521 1520 1517
1438 1441 1444 1447 1450 1452 1455 1457 1460 1461 1464 1465 1467 1469 1470 1470 1471 1472 1474 1475 1479 1484 1492 1499 1504 1504 1505 1508 1510 1511 1511 1511 1513 1515 1515 1516 1517 1519 1519 1518 1517 1516 1514
1437 1438 1441 1444 1446 1448 1450 1452 1454 1456 1457 1458 1459 1458 1457 1455 1456 1456 1461 1467 1472 1478 1485 1493 1497 1498 1500 1503 1504 1505 1507 1507 1507 1509 1510 1510 1513 1515 1514 1514 1513 1513 1511
1434 1436 1438 1441 1443 1444 1445 1446 1447 1448 1450 1451 1451 1447 1438 1436 1437 1440 1445 1456 1465 1473 1481 1485 1489 1491 1494 1496 1498 1500 1500 1501 1502 1504 1506 1506 1508 1510 1511 1510 1510 1509 1507
1432 1433 1435 1437 1439 1439 1440 1441 1442 1443 1443 1444 1442 1439 1429 1426 1429 1433 1431 1446 1458 1468 1473 1479 1483 1485 1487 1490 1490 1494 1495 1496 1497 1499 1501 1503 1504 1506 1507 1508 1507 1505 1504
1429 1430 1431 1433 1434 1435 1436 1436 1437 1437 1437 1437 1437 1435 1431 1425 1428 1430 1430 1440 1456 1464 1469 1472 1475 1477 1481 1483 1486 1489 1490 1491 1493 1493 1495 1497 1498 1500 1502 1503 1503 1502 1501
1425 1425 1427 1428 1429 1430 1430 1431 1432 1432 1433 1433 1434 1435 1434 1436 1437 1438 1440 1444 1451 1457 1460 1463 1466 1470 1474 1476 1479 1482 1484 1486 1488 1488 1490 1493 1493 1494 1496 1497 1498 1497 1496